Location: Ao Por, Phuket, Thailand
(8.0591°N, 98.4362°E)
Time: 16:57:30
(UTC+07:00)

N. Korean satellite - Pass Details

Date: 01 October 2021
Orbit: 450 x 495 km, 97.3° (Epoch: 15 October)

Event Time Altitude Azimuth Distance (km) Brightness Sun altitude
Rises 04:44:00 0° 34° (NE) 2,557 10.7 -23.2°
Reaches altitude 10° 04:46:30 10° 53° (NE) 1,682 10.0 -22.6°
Maximum altitude 04:49:09 19° 100° (E) 1,214 9.4 -21.9°
Drops below altitude 10° 04:51:49 10° 147° (SSE) 1,690 9.7 -21.3°
Sets 04:54:19 0° 165° (SSE) 2,573 10.4 -20.7°
